Regional Weather Roundup
Issued by NWS

Home | Current Version | Previous Version | Graphics & Text | Print | Product List | Glossary On
Versions: 1 2 3 4 5 6 7 8 9 10 11 12 13 14 15 16 17 18 19 20 21 22 23 24 25 26 27 28 29 30 31 32 33 34 35 36 37 38 39 40 41 42 43 44 45 46 47 48 49 50
745
ASUS43 KLMK 230510
RWRKY
KENTUCKY REGIONAL WEATHER ROUNDUP
NATIONAL WEATHER SERVICE LOUISVILLE KY
100 AM EDT SAT JUL 23 2016

NOTE "FAIR" INDICATES FEW OR NO CLOUDS BELOW 12,000 FEET
WITH NO SIGNIFICANT WEATHER AND/OR OBSTRUCTIONS TO VISIBILITY.

KYZ001>023-026-027-061>063-070>075-230600-
WESTERN AND SOUTH CENTRAL KENTUCKY

CITY           SKY/WX    TMP DP  RH WIND       PRES   REMARKS
PADUCAH        PTCLDY    77  74  90 CALM      30.00F
HENDERSON      CLEAR     75  72  88 CALM      29.99F
OWENSBORO      MOCLDY    76  73  90 SE3       30.01F
HOPKINSVILLE   MOCLDY    77  73  86 SW1       30.02F
BOWLING GREEN  CLOUDY    76  74  93 E3        30.02F
GLASGOW        CLOUDY    73  73 100 CALM      30.03F
$$

KYZ024-025-028>034-038-045-046-053-230600-
NORTH CENTRAL KENTUCKY

CITY           SKY/WX    TMP DP  RH WIND       PRES   REMARKS
LOUISVILLE/SDF MOCLDY    78  70  76 SW5       30.02F
LOUISVILLE/LOU CLEAR     77  70  79 CALM      30.03F
FORT KNOX      CLOUDY    72  72  98 CALM      30.02F FOG
$$

KYZ035>037-039>044-047>052-055>060-089>105-230600-
NORTHEAST KENTUCKY

CITY           SKY/WX    TMP DP  RH WIND       PRES   REMARKS
LEXINGTON      CLEAR     74  70  87 CALM      30.06S
COVINGTON      CLEAR     75  71  87 CALM      30.05F
FRANKFORT      CLEAR     75  70  84 SW3       30.04S
$$

KYZ054-064>069-076>088-106>120-230600-
SOUTHEAST KENTUCKY

CITY           SKY/WX    TMP DP  RH WIND       PRES   REMARKS
JACKSON        CLEAR     71  69  93 CALM      30.08F
LONDON         CLOUDY    74  70  87 CALM      30.07S
SOMERSET       MOCLDY    70  70 100 CALM      30.07F FOG
MIDDLESBORO    CLOUDY    76  73  90 CALM      30.07F
MONTICELLO     CLOUDY   N/A N/A N/A W8        30.07F HAZE
$$





USA.gov is the U.S. government's official web portal to all federal, state and local government web resources and services.